www.pogodaiklimat.ru

Погода и климат >> Архив погоды >> Антарктида >> Marambio Base


ПОГОДА в Marambio Base

  • Прогноз погоды в Marambio Base
  • Монитор погоды в Marambio Base
  • Климат города

АРХИВ ПОГОДЫ в Marambio Base

Время (UTC), дата Ветер
(напр.,м/с)
 
Видим.   Явления Облачность Т
(С)
Тd
(С)
f
(%)
Тe
(С)
Тes
(С)
Комфортность P
(гПа)
Po
(гПа)
Тmin
(С)
Tmax
(С)
R
(мм)
R24
(мм)
S
(см)
03 9.07 СЗ 20 900 м сильная метель 10/0
[Cs]
+0.3 -0.8 92 -10 -10 992.4 968.0
06 9.07 СЗ 13 5000 м позёмок {метель} 10/10
[Cu hum Cs]
+2.1 +0.2 87 -6 -6 984.3 960.2
09 9.07 З 10 15 км {метель} 10/0
[Cs]
+1.0 -0.2 92 -7 -7 981.9 957.8
12 9.07 СЗ 3 15 км {метель} 9/0
[Ac As Cs]
+2.4 -0.6 81 -2 -2 982.0 958.1 -1.6 +4.2
15 9.07 СЗ 8 15 км 9/0
[Ac As Cs]
+1.9 -0.5 84 -5 -5 981.2 957.3
18 9.07 СЗ 16 15 км 10/0
[Ac As Cs]
+1.9 +0.3 89 -7 -7 978.4 954.6
21 9.07 СЗ 10 15 км 9/0
[Ac As]
-1.2 -1.4 99 -10 -10 975.7 951.8
00 10.07 С 13 200 м слабый переохл. дождь (гололёд) {туман} 10/10 30 м
[St]
-1.7 -1.9 99 -12 -12 970.4 946.6 -3.8 +4.2
03 10.07 С 10 200 м снег {дождь} 10/10 60 м
[St]
-1.8 -2.0 99 -11 -11 965.5 941.8
06 10.07 СЗ 6 8000 м в посл. час туман {снег} 10/10 1200 м
[Sc]
-2.2 -2.5 98 -9 -9 962.0 938.5
09 10.07 ЮЗ 11 8000 м слабый снег {дождь} 10/10 900 м
[St]
-4.7 -5.3 96 -15 -15 963.2 939.4
12 10.07 З 7 15 км {снег} 9/0
[Ac As Cs]
-4.5 -5.1 96 -13 -13 966.2 942.2 -5.1 -0.9
15 10.07 З 4 15 км 1/0
[Ci fib]
-1.7 -5.4 76 -12 -12 968.1 944.2
18 10.07 ЮЗ 3 15 км {метель} 4/1 300 м
[St Ac lent Cs]
-2.9 -3.9 93 -8 -8 967.6 943.8
21 10.07 З 7 15 км 4/0
[Cs]
-3.6 -4.1 96 -12 -12 964.7 940.8
00 11.07 СЗ 19 15 км ясно -4.2 -5.7 89 -16 -16 963.8 939.8 -5.1 -0.3
03 11.07 СЗ 14 15 км 8/0
[Cs]
-5.4 -6.1 95 -17 -17 962.5 938.6
06 11.07 З 11 15 км 9/0
[Cs]
-6.6 -8.6 86 -17 -17 963.8 939.8
09 11.07 Ю 10 15 км {метель} 4/0
[Cs]
-18.2 -20.3 84 -31 -31 опасность
обморожения
966.6 942.0
12 11.07 Ю 11 15 км {метель} 4/0
[Cs]
-21.6 -24.0 81 -36 -36 опасность
обморожения
968.7 943.8 -21.7 -4.0
15 11.07 Ю 13 10 км дымка 10/6 360 м
[St Ac As Cs]
-24.0 -26.6 79 -40 -40 опасность
обморожения
970.2 945.2
18 11.07 Ю 12 10 км дымка 10/8 750 м
[St Ac As Cs]
-26.1 -28.8 78 -43 -43 опасность
обморожения
974.1 948.8
21 11.07 Ю 13 15 км 10/4 360 м
[St As op]
-26.0 -28.7 78 -43 -43 опасность
обморожения
977.0 951.0
00 12.07 ЮЗ 22 5000 м сильный позёмок {метель} 4/0
[Cs]
-28.0 -30.9 76 -50 -50 опасность
обморожения
977.6 951.4 -28.1 -20.8
03 12.07 Ю 17 9000 м позёмок {метель} 4/0
[Ac As Cs]
-26.1 -28.8 78 -45 -45 опасность
обморожения
981.3 955.0
06 12.07 Ю 18 900 м метель ясно -25.7 -28.4 78 -45 -45 опасность
обморожения
982.6 956.1
09 12.07 Ю 16 900 м метель ясно -25.6 -28.3 78 -44 -44 опасность
обморожения
984.7 958.2
12 12.07 Ю 19 5000 м туман местами {метель} 9/0
[Cs]
-25.5 -28.2 78 -45 -45 опасность
обморожения
985.6 959.0 -28.1 -24.8
15 12.07 ЮЗ 16 9000 м дымка {метель} 3/0
[Ac As Cs]
-24.1 -26.7 79 -42 -42 опасность
обморожения
988.4 962.0
18 12.07 Ю 15 15 км {метель} 9/0
[Ac As Cs]
-23.7 -26.3 79 -41 -41 опасность
обморожения
990.1 963.6
21 12.07 ЮЗ 12 15 км ясно -25.4 -28.1 78 -42 -42 опасность
обморожения
990.9 964.2
00 13.07 Ю 7 15 км ясно -26.6 -29.4 77 -40 -40 опасность
обморожения
990.6 963.8 -26.7 -22.9
03 13.07 СЗ 5 15 км ясно -23.7 -26.3 79 -34 -34 опасность
обморожения
988.0 961.6
06 13.07 СЗ 5 15 км 4/0
[Cs]
-21.6 -24.0 81 -32 -32 опасность
обморожения
985.2 959.0
09 13.07 Ю 7 300 м туман 10/10 90 м
[St]
-22.0 -24.4 81 -34 -34 опасность
обморожения
986.0 959.7
12 13.07 Ю 15 15 км {туман} 8/0
[Ac As Cs]
-23.8 -26.4 79 -41 -41 опасность
обморожения
987.1 960.6 -28.1 -20.8
18 13.07 Ю 21 10 км дымка ясно -24.3 -26.9 79 -44 -44 опасность
обморожения
990.7 964.2
21 13.07 ЮЗ 22 15 км ясно -23.3 -25.8 80 -43 -43 опасность
обморожения
991.8 965.4
00 14.07 Ю 22 900 м сильная метель ясно -24.5 -27.1 79 -44 -44 опасность
обморожения
993.4 966.8 -24.6 -22.8
03 14.07 ЮЗ 23 8000 м сильный позёмок {метель} ясно -24.6 -27.2 79 -45 -45 опасность
обморожения
993.6 967.0
06 14.07 ЮЗ 22 15 км {метель} ясно -25.3 -28.0 78 -46 -46 опасность
обморожения
995.2 968.5
09 14.07 ЮЗ 20 15 км ясно -24.8 -27.4 79 -44 -44 опасность
обморожения
996.2 969.4
12 14.07 Ю 15 15 км ясно -24.4 -29.8 61 -42 -42 опасность
обморожения
997.2 970.5 -25.6 -23.8
15 14.07 Ю 11 15 км ясно -23.5 -28.6 63 -39 -39 опасность
обморожения
997.1 970.4
18 14.07 Ю 9 15 км ясно -24.1 -27.9 71 -39 -39 опасность
обморожения
996.7 970.0
21 14.07 Ю 6 15 км ясно -22.7 -25.2 80 -34 -34 опасность
обморожения
997.2 970.6
00 15.07 Ю 3 15 км ясно -20.8 -23.1 82 -28 -28 997.9 971.4 -25.1 -20.8
03 15.07 С 2 15 км ясно -20.9 -23.2 82 -27 -27 997.5 971.0
06 15.07 С 3 15 км ясно -20.0 -22.2 83 -28 -28 997.2 970.6
09 15.07 С 6 15 км ясно -19.9 -22.1 83 -30 -30 996.1 969.8
12 15.07 С 5 15 км ясно -21.0 -23.3 82 -31 -31 опасность
обморожения
996.4 970.1 -21.3 -19.2
15 15.07 С 8 15 км ясно -20.6 -22.9 82 -33 -33 опасность
обморожения
996.7 970.4
18 15.07 С 8 15 км 1/0
[Ac lent]
-18.4 -20.5 83 -30 -30 996.3 970.2
21 15.07 С 6 15 км 3/0
[Ac As Ci fib]
-16.4 -18.3 85 -26 -26 995.8 969.8

 

Местоположение метеостанции Marambio Base (Антарктида): широта -64.23 долгота -56.71 высота над уровнем моря 198 м.

В архиве по умолчанию представлена погода в Marambio Base за последнюю неделю. Архивные данные за месяц целиком и за предыдущие месяцы, начиная с января 2011 года, Вы можете получить, выбрав интересующий диапазон дат из раскрывающегося списка и нажав кнопку "Ввод!".


*Определитесь, кто Вы:
робот инопланетянин человек

Внимание! Время в таблицах - всемирное. Для получения местного времени необходимо прибавить поправку, которая в Marambio Base равна 0 ч.

Смотрите также архив погоды в соседних городах и на ближайших метеорологических станциях:

Погода в Esperanza Base (Антарктида) (93 км)
Погода в Bernardo o`Higgins (Антарктида) (118 км)
Погода в Carlini Base (Антарктида) (242 км)
Погода в Captain Arturo Prat Base (Антарктида) (243 км)
Погода в King Sejong (Антарктида) (247 км)
Погода в Great Wall (Антарктида) (251 км)
Погода в Dinamet-Uruguay (Антарктида) (252 км)
Погода в Bellingshausen (Антарктида) (252 км)
Погода в Juan Carlos Island (Антарктида) (253 км)
Погода в Frei Chi-Base (Антарктида) (255 км)

Пояснения к столбцам:

Ветер - указаны скорость ветра в м/с - средняя за 10 мин, порывы в срок и между сроками (в фигурных скобках) и направление, откуда дует ветер: С - северный, СВ - северо-восточный, В - восточный, ЮВ - юго-восточный, Ю - южный, ЮЗ - юго-западный, З - западный, СЗ - северо-западный.
Видимость - горизонтальная дальность видимости в метрах или километрах. При видимости от 1 до 10 км при отсутствии осадков обычно наблюдается дымка, при ухудшении видимости до 1 км и менее - туман. В сухую погоду видимость может ухудшаться дымом, пылью или мглою.
Явления - указаны атмосферные явления, наблюдавшиеся в срок или в последний час перед сроком; фигурными скобками обозначены явления, наблюдавшиеся между сроками (за 1-3 часа до срока); квадратными скобками обозначены град или гололедные отложения с указанием их диаметра в мм.
Облачность - указаны через наклонную черту общая и нижняя облачность в баллах и высота нижней границы облаков в метрах; квадратными скобками обозначены формы облаков: Ci - перистые, Cs - перисто-слоистые, Cc - перисто-кучевые, Ac - высококучевые, As - высокослоистые, Sc - слоисто-кучевые, Ns - слоисто-дождевые, Cu - кучевые, Cb - кучево-дождевые. Подробнее классификацию облаков см. в Атласе облаков (PDF).
T - Температура воздуха - температура, измеренная на высоте 2 м над землей.
Td - Температура точки росы - температура, при понижении до которой содержащийся в воздухе водяной пар достигнет насыщения.
f - Относительная влажность воздуха - влажноcть воздуха, измеренная на высоте 2 м над землей.
Te - Эффективная температура - температура, которую ощущает одетый по сезону человек в тени. Характеристика душности погоды. При расчете учитывается влияние влажности воздуха и скорости ветра на теплоощущения человека.
Tes - Эффективная температура на солнце - температура, которую ощущает человек, с поправкой на солнечный нагрев. Характеристика знойности погоды. Зависит от высоты солнца над горизонтом, облачности и скорости ветра. Ночью, в пасмурную погоду, а также при ветре 12 м/с и более поправка равна нулю.
P - Атмосферное давление - приведенное к уровню моря атмосферное давление.
Po - Атмосферное давление - измеренное на уровне метеостанции атмосферное давление.
Tmin - Минимальная температура - минимум температуры воздуха на высоте 2 м над землей.
Tmax - Максимальная температура - максимум температуры воздуха на высоте 2 м над землей.
R - Количество осадков - Количество выпавших осадков за период времени, мм. При наведении курсора мыши на число - период времени, за который выпало указанное количество осадков.
R24 - Количество осадков - Количество выпавших осадков за 24 часа, мм.
S - Снежный покров - Высота снежного покрова, см. При наведении курсора мыши на число - состояние снежного покрова и степень покрытия местности в баллах.